RH
42 35 22 20 22 21 22 25 24 27 36 34 25 37 55 47 36 44 65 78 63 52 70 86 88 95 99 99 98 96 98 100 99 100 100 100 101 100 100 100 100 100 100 100 100 100 100 100 100 100 101 100 100 101 99 96 97 100 101 98 98 100 100 100 100 100 100 100 100 99 98 95 92 91 88 76 59 46 32 18 11 12 14 14 14 17 20
47 41 25 18 19 22 25 26 28 31 39 37 27 45 64 46 42 67 76 74 73 67 74 87 88 90 95 96 98 97 97 100 101 100 100 100 100 100 100 100 100 100 100 99 100 101 99 100 100 100 100 100 99 100 99 96 98 101 99 98 100 100 100 100 100 99 99 99 97 96 94 90 87 84 78 67 51 34 19 12 10 11 14 18 20 21 21
48 46 35 21 17 25 29 35 42 39 37 41 44 61 73 56 56 83 86 75 80 85 91 98 96 94 96 98 99 98 98 101 100 99 101 100 100 101 100 100 100 99 100 100 100 100 100 100 100 100 100 100 99 100 100 99 100 100 97 98 101 100 99 99 97 96 96 96 95 94 92 89 84 78 72 58 38 21 11 9 10 11 14 20 25 27 24
42 49 47 29 24 31 30 34 45 44 40 44 50 62 72 63 65 84 81 66 73 92 100 100 99 99 98 99 100 99 100 101 99 100 101 99 100 101 99 99 100 100 100 100 100 100 100 100 100 100 100 100 100 100 100 100 100 98 95 98 101 100 99 97 93 93 93 94 95 95 93 89 80 72 65 48 26 13 9 9 8 11 16 22 28 30 26
40 49 52 35 30 30 28 37 49 48 45 44 41 46 61 71 77 79 65 55 73 98 100 97 100 100 98 99 99 98 99 100 100 100 100 100 100 100 100 99 98 99 100 100 100 100 100 100 100 100 99 99 100 100 100 99 99 95 95 99 100 98 97 93 90 91 93 95 96 95 94 90 79 69 58 40 20 10 8 9 8 12 19 25 29 31 28
42 42 47 33 30 33 38 60 70 54 43 43 40 40 53 70 80 82 76 73 87 100 96 94 99 97 96 98 97 96 97 99 101 100 99 101 99 98 100 99 98 100 101 100 99 99 99 100 100 99 98 98 99 100 100 100 97 93 95 100 100 96 93 91 89 91 94 95 95 94 94 88 76 67 55 35 17 9 8 8 8 12 19 25 31 34 31
51 54 51 31 34 46 55 74 85 74 62 59 58 56 61 70 76 87 98 97 97 101 96 91 92 91 92 93 93 96 97 97 100 101 99 100 99 98 99 99 100 100 98 98 98 97 97 99 100 100 98 97 99 100 100 100 95 92 95 97 96 93 92 92 92 94 96 97 95 92 89 82 71 63 52 31 13 8 9 9 9 12 17 25 32 37 36
51 57 50 35 42 54 57 62 70 73 64 54 55 52 51 63 72 82 97 101 98 101 100 93 90 87 89 92 93 94 96 97 98 96 96 97 95 93 94 95 99 100 98 97 95 92 95 97 99 101 99 97 99 99 99 97 93 92 95 95 95 95 93 93 95 97 97 97 94 90 85 80 73 62 48 30 15 9 10 11 13 16 21 28 34 37 40
59 60 53 54 57 53 53 52 48 50 42 38 54 55 42 55 73 80 93 103 99 99 101 99 93 87 89 97 97 95 95 97 96 93 93 95 94 93 94 95 98 100 99 99 94 88 91 95 99 101 98 96 98 99 100 99 95 94 94 93 95 95 94 96 98 99 100 98 94 90 83 77 70 60 48 34 19 11 9 10 13 18 25 33 37 37 38
69 63 52 61 63 53 60 63 54 54 52 51 64 60 41 49 68 78 93 103 99 99 101 96 87 81 87 96 97 96 95 94 96 96 95 95 95 95 95 95 97 99 99 99 94 87 87 91 97 100 99 98 98 99 101 99 97 96 94 93 94 95 96 97 95 96 99 98 95 91 84 75 66 57 50 40 23 11 9 10 12 19 29 36 41 40 35
77 71 58 61 58 48 57 66 59 59 63 62 58 45 39 51 63 75 94 101 98 101 101 91 80 76 82 88 88 89 93 93 95 98 97 97 97 95 94 92 92 94 96 96 95 90 87 88 92 96 98 99 99 100 100 98 96 95 93 91 90 91 92 88 84 87 93 93 91 86 80 75 65 54 50 43 24 11 12 14 14 23 33 38 41 42 39
76 77 64 57 56 50 52 62 66 60 56 53 43 36 47 60 61 70 91 99 98 100 98 89 79 71 72 74 70 75 87 92 92 92 91 92 93 94 96 95 92 91 93 95 95 93 90 89 89 92 97 100 100 99 99 98 95 93 91 88 87 88 87 82 82 89 91 91 90 80 71 70 67 60 58 54 34 14 12 18 21 27 36 40 41 41 42
68 69 57 49 57 59 54 61 68 56 44 45 49 53 59 61 60 70 87 95 98 99 94 88 81 74 70 65 60 66 79 85 88 90 88 87 88 89 91 93 93 93 92 92 91 91 91 91 90 92 97 100 99 96 96 96 94 91 89 88 88 89 86 82 86 92 92 93 90 79 69 68 65 57 52 52 44 25 12 16 24 29 37 43 40 38 41
57 68 67 56 58 60 59 67 65 47 39 49 61 63 58 59 66 72 79 88 94 95 92 88 83 78 73 65 61 67 75 78 82 88 90 89 90 90 90 91 92 93 94 94 94 93 93 94 92 93 97 99 97 94 92 91 91 90 89 89 88 87 85 85 87 91 94 94 88 80 74 70 66 57 41 37 44 34 16 13 22 28 36 42 40 38 39
55 69 68 57 59 65 66 65 58 50 51 54 57 58 57 63 71 69 69 77 83 87 91 90 84 78 72 65 62 68 77 80 80 84 88 91 92 93 95 95 94 94 95 95 96 96 95 95 95 94 96 98 97 93 89 89 90 90 89 89 87 85 86 88 88 90 94 93 87 82 78 70 67 59 37 29 40 36 17 13 20 26 33 39 39 37 35
55 56 53 53 64 73 72 65 59 59 58 52 52 57 58 58 61 62 64 68 69 75 83 84 82 78 72 66 63 64 73 82 85 84 84 88 91 92 94 95 95 96 96 95 97 98 97 96 96 95 96 97 96 93 90 90 91 91 90 89 86 84 86 88 89 90 92 91 87 84 78 67 58 49 35 35 45 38 18 13 18 22 27 33 33 30 26
53 50 59 69 69 67 69 68 66 63 58 54 54 53 48 46 45 48 56 62 64 69 73 76 79 80 75 71 66 61 64 74 84 87 84 84 89 92 94 95 95 96 97 97 97 99 99 98 97 97 98 97 92 89 88 89 92 92 90 88 85 83 85 87 89 90 92 91 86 81 75 62 49 45 42 41 43 35 19 14 17 17 20 23 21 18 16
68 63 69 73 67 63 64 65 63 61 57 56 55 49 45 46 44 41 46 55 62 66 70 73 75 74 75 76 71 64 61 65 77 86 87 87 91 94 96 97 97 98 99 98 97 98 99 100 99 99 100 98 93 88 85 86 91 92 89 87 85 83 84 87 88 90 91 88 81 76 71 56 45 48 46 34 28 27 20 15 17 15 14 14 13 12 12
76 75 75 71 64 62 64 62 62 62 58 56 56 53 51 51 50 48 48 51 57 62 67 71 72 71 75 79 77 71 64 62 70 81 85 87 90 94 97 99 99 100 100 100 100 99 98 99 100 100 100 98 95 93 88 86 90 90 89 88 85 83 84 86 88 90 88 82 77 74 65 51 49 62 58 35 22 21 16 13 16 16 12 10 9 10 10
67 65 70 69 60 58 63 65 63 62 60 59 58 57 56 53 53 54 51 50 54 56 60 66 70 71 75 78 80 79 72 65 68 76 85 91 94 96 99 100 99 100 100 99 100 100 99 99 99 99 100 98 96 95 92 89 90 91 90 88 85 84 84 85 88 90 87 79 73 68 56 46 54 68 59 33 19 16 12 9 11 11 10 9 8 7 8
65 60 62 62 56 56 62 66 64 59 57 57 57 58 59 56 53 52 49 49 50 52 55 59 60 63 69 73 78 82 80 73 68 71 83 96 100 99 100 101 100 100 100 100 100 100 99 100 99 98 98 97 96 95 93 91 91 90 89 87 86 84 84 84 87 89 86 77 68 59 51 53 63 66 48 25 15 15 13 11 9 8 8 7 6 6 7
65 68 67 61 57 59 61 64 65 61 56 56 57 57 58 56 53 51 49 49 51 53 55 56 56 59 65 71 77 83 84 80 73 71 80 94 100 100 100 100 100 100 100 100 100 100 100 100 100 98 97 95 95 94 93 92 92 90 88 87 86 84 84 85 87 86 81 73 64 57 55 61 69 66 49 31 21 16 13 12 12 11 10 9 8 7 6
69 73 73 66 64 67 67 65 65 62 59 59 59 57 58 58 56 52 50 52 54 55 56 58 59 61 64 70 77 82 84 83 78 73 77 89 99 101 100 100 100 100 100 100 100 100 100 100 99 98 96 95 94 94 93 93 92 90 88 86 85 84 84 84 85 82 74 65 62 63 64 66 66 60 47 33 24 19 17 15 13 13 16 21 23 20 15
78 76 76 75 73 72 69 65 64 63 62 61 61 60 60 59 56 53 53 54 54 55 59 62 63 63 65 69 76 79 81 82 80 77 79 88 97 99 99 100 100 99 100 100 100 100 100 100 99 99 97 95 94 93 93 93 92 90 89 87 85 84 83 83 82 76 67 62 64 69 71 71 68 58 42 27 19 18 20 21 19 19 23 32 37 37 32
75 73 75 77 75 72 68 65 63 63 63 61 61 61 59 57 56 55 55 54 54 55 58 62 65 67 68 70 74 79 82 83 84 84 85 89 94 97 98 99 100 100 101 100 100 100 100 99 99 98 97 96 96 94 92 93 93 91 89 88 86 84 83 82 78 71 65 65 69 72 73 73 70 60 43 26 17 17 22 26 29 31 35 42 46 46 46
70 71 72 72 72 69 66 64 62 62 62 62 61 60 58 57 58 58 56 55 55 55 56 61 66 70 72 73 74 78 83 87 91 92 92 94 97 99 96 91 89 93 99 100 100 100 100 100 99 99 97 97 95 94 93 94 93 91 89 87 86 84 82 80 74 69 67 69 71 74 74 73 69 60 44 29 25 27 27 28 33 39 44 49 51 50 52
67 68 69 70 71 68 64 62 61 61 62 62 60 59 59 58 59 59 58 58 58 57 58 60 63 67 72 76 77 77 81 87 92 95 98 99 99 98 95 88 85 90 97 100 100 100 100 99 98 98 98 97 95 94 94 94 93 91 88 86 84 83 82 80 74 68 68 71 74 75 74 71 68 60 46 36 38 41 33 27 31 39 46 51 53 53 53
66 67 69 69 68 67 64 62 61 61 62 61 60 59 59 59 59 60 60 61 62 63 63 63 63 63 68 74 77 78 79 83 88 93 97 98 99 99 98 96 95 97 99 100 100 100 100 98 98 98 98 98 96 95 94 94 93 91 86 85 86 86 85 83 79 73 71 73 74 74 72 70 66 59 48 41 46 49 42 36 40 45 48 53 56 52 48
63 63 66 66 64 63 63 62 62 62 62 61 61 61 60 60 60 61 62 64 66 67 69 70 69 68 70 74 77 80 81 84 87 91 95 96 98 100 100 100 100 101 100 100 100 100 100 99 98 98 98 95 93 94 95 94 92 89 86 86 87 85 83 82 81 78 75 74 74 73 71 68 66 61 53 48 51 54 50 47 51 53 51 51 51 45 39
64 62 63 63 62 62 63 62 62 62 62 62 63 62 61 61 61 62 63 65 68 70 72 74 76 76 75 75 77 82 86 87 88 91 94 96 97 97 98 98 99 99 100 101 100 100 100 99 97 97 97 93 89 90 92 93 91 89 87 85 84 83 81 78 77 78 77 75 74 74 71 70 68 63 56 53 56 58 54 52 54 55 51 49 47 41 36
63 60 60 60 60 61 62 62 63 62 62 64 64 63 63 63 63 64 65 67 69 71 70 70 74 78 80 80 80 83 85 85 86 88 90 91 94 93 88 85 85 87 89 92 95 97 99 99 97 97 97 95 91 90 91 91 90 87 84 84 83 82 78 75 74 77 77 75 75 74 73 71 70 64 58 57 58 58 56 55 55 52 51 50 48 41 39
62 62 62 62 63 63 63 64 65 64 63 65 65 65 65 66 66 67 68 70 71 72 70 66 66 74 81 84 84 85 86 85 85 87 86 87 91 89 81 78 82 84 82 84 89 93 96 97 98 97 97 95 93 91 89 88 87 85 84 85 82 76 72 74 78 79 78 76 76 75 73 71 67 61 56 53 54 56 57 55 52 50 51 52 48 44 44
61 62 65 68 69 68 68 69 69 67 66 67 68 68 68 69 69 69 71 73 73 74 73 68 64 69 80 87 87 87 87 84 82 82 82 83 88 88 85 84 89 90 87 88 91 93 95 97 97 96 95 94 92 89 87 87 86 84 83 83 80 73 70 74 78 78 79 79 77 76 75 70 61 53 49 49 53 58 58 52 48 50 53 52 50 47 44
61 62 66 70 70 70 72 71 71 71 71 70 71 72 71 71 72 72 73 76 77 78 77 72 65 64 73 83 88 90 89 86 83 83 84 84 86 88 89 90 94 96 97 97 97 97 97 96 95 94 94 93 90 87 86 86 85 84 83 82 78 73 71 73 75 75 75 74 71 70 70 66 55 49 49 52 55 58 55 50 50 54 56 55 50 41 29
64 64 66 68 66 68 70 71 70 72 73 72 74 75 75 75 75 75 75 77 79 81 82 80 74 69 71 78 83 86 90 91 90 89 88 87 85 85 87 89 92 96 98 98 98 98 95 94 93 93 91 89 87 85 84 84 85 84 82 80 77 74 71 71 68 63 58 55 53 55 58 57 50 47 52 57 58 57 53 52 55 59 56 46 34 23 16
65 64 64 64 65 66 67 69 71 73 74 75 78 79 80 80 80 79 79 78 80 82 84 82 78 74 73 72 73 74 80 88 92 91 90 89 86 86 88 89 90 92 94 95 95 94 93 91 90 89 87 85 83 81 81 83 83 83 82 81 79 76 71 65 61 57 55 54 53 51 52 50 46 45 52 58 57 54 53 55 60 57 42 25 19 21 27
65 66 65 65 66 66 66 69 75 78 79 80 82 83 84 84 83 83 82 80 79 80 79 76 73 71 69 69 67 66 71 81 90 93 92 91 90 90 90 90 90 91 92 92 91 91 91 89 87 85 83 82 81 80 81 81 82 83 84 81 76 70 65 62 62 64 64 61 57 53 51 51 52 54 56 55 52 54 58 61 56 42 24 16 25 39 46
64 66 68 70 73 72 70 70 75 79 82 84 85 86 87 86 85 83 82 78 77 76 74 72 72 71 69 69 70 71 76 83 91 94 94 93 92 91 91 91 92 92 91 91 90 90 89 87 84 83 82 81 82 82 81 81 82 83 81 75 69 66 65 65 64 62 59 56 52 48 47 50 54 56 55 55 57 61 59 52 43 35 30 32 41 48 49
63 65 69 73 77 78 76 75 77 79 80 82 83 84 84 84 82 80 78 76 75 76 75 74 73 71 71 74 78 82 86 90 91 92 93 91 90 91 92 93 94 93 93 92 91 89 88 87 83 81 81 82 83 82 82 82 84 81 74 69 69 68 66 62 59 56 55 54 51 48 48 52 55 57 59 62 61 52 40 35 38 43 47 48 49 50 50
68 71 73 73 75 77 80 82 81 78 78 81 82 82 82 82 80 79 78 77 77 77 78 79 78 76 78 85 89 90 91 92 91 90 91 90 90 91 93 93 94 94 94 94 92 89 88 87 84 81 81 81 81 82 83 83 81 75 71 73 76 73 67 63 60 59 59 59 58 58 60 61 61 61 60 56 47 38 36 42 50 55 54 52 52 52 51
68 73 76 72 71 75 82 84 81 76 77 81 83 82 82 82 81 81 81 81 82 83 83 84 84 84 87 92 94 93 93 92 91 90 90 90 92 93 93 93 95 95 93 92 91 89 87 86 82 80 81 81 82 83 82 79 78 78 78 78 74 67 61 58 57 56 58 60 62 62 63 61 58 53 48 44 43 46 52 57 57 55 53 51 49 48 49
65 72 77 72 69 73 79 81 81 80 81 82 82 81 82 82 82 82 83 83 84 86 86 86 87 89 93 96 96 94 92 92 91 91 91 92 94 96 95 94 93 93 92 90 88 87 86 84 82 82 83 83 82 81 79 78 80 81 78 72 65 59 57 58 59 59 60 60 59 56 54 54 54 52 50 51 53 56 57 56 55 54 53 51 49 49 51
66 71 74 70 69 74 78 79 81 82 81 82 82 82 83 83 83 84 85 85 85 87 88 88 89 92 94 95 94 92 91 91 91 91 90 90 92 95 97 95 93 90 89 88 87 86 85 84 83 84 84 82 80 78 79 80 80 78 75 72 71 70 69 69 70 70 68 65 62 60 58 58 58 58 57 57 57 56 56 55 56 55 55 53 52 53 52
69 73 71 65 68 78 83 83 82 82 80 81 83 83 84 85 84 83 84 85 85 87 89 90 91 92 93 93 93 93 92 92 92 92 90 89 88 89 93 95 93 89 86 86 86 85 85 84 83 82 81 81 81 80 80 80 79 79 78 79 79 80 79 79 78 77 74 70 68 68 67 66 63 60 58 57 57 56 56 56 56 56 56 54 52 50 49
69 73 70 63 65 76 83 84 83 82 81 82 82 83 84 85 85 83 83 83 85 86 88 89 92 94 93 93 95 97 96 95 95 94 93 91 89 86 87 90 91 88 85 86 86 85 82 82 81 79 79 82 83 83 81 80 78 77 81 84 86 85 84 83 82 81 79 76 73 71 70 68 65 61 59 58 56 53 51 50 51 54 55 54 52 50 48
67 71 70 64 62 70 78 82 82 82 80 79 80 82 83 83 83 83 83 82 83 85 86 88 91 95 96 95 96 98 97 96 96 96 96 94 92 89 87 87 89 87 84 84 85 83 80 79 80 80 82 85 87 86 84 82 80 81 86 89 87 84 83 84 85 84 81 78 75 72 70 67 64 61 60 58 56 54 51 48 46 48 51 51 50 49 48
66 69 69 63 59 63 71 77 78 77 77 76 77 78 80 81 82 82 82 81 81 84 86 88 90 94 95 96 96 96 94 92 93 96 97 95 92 89 87 87 87 85 83 82 83 83 81 81 82 84 87 91 92 91 88 87 88 89 89 88 86 85 85 85 83 81 79 76 73 71 68 65 62 61 60 58 57 57 55 52 49 49 50 49 48 48 47
65 68 71 70 66 66 68 69 69 70 73 75 76 75 76 78 80 81 82 82 82 83 85 88 89 92 94 97 98 98 96 93 91 92 93 93 90 88 86 86 87 86 84 83 85 87 87 87 88 90 92 94 95 94 92 90 90 89 88 88 89 89 87 83 78 75 72 70 67 65 63 61 59 58 57 56 55 55 55 53 52 50 49 47 47 46 46
59 66 74 76 71 65 64 65 66 69 72 75 75 75 77 78 79 80 83 84 83 83 85 88 90 92 95 96 97 98 99 98 94 91 90 90 89 87 85 85 86 87 85 85 87 90 90 91 94 94 93 92 93 92 90 88 87 87 88 90 89 86 85 83 79 73 69 67 66 65 63 61 59 58 56 55 53 52 51 50 49 49 48 47 46 46 45
58 63 68 67 64 62 62 65 67 70 74 75 75 76 78 79 80 81 83 83 83 84 85 87 90 92 94 95 96 97 99 99 97 94 92 90 89 89 88 87 87 88 88 89 90 90 91 93 95 94 91 89 89 90 90 89 87 86 87 86 83 81 81 80 75 70 67 66 65 63 60 59 59 58 57 56 54 53 52 51 50 49 48 47 46 45 45
59 62 64 63 62 62 64 67 69 71 73 74 75 76 77 77 79 81 82 82 83 84 85 87 89 92 93 94 96 98 99 99 99 97 95 93 91 92 92 91 90 91 92 92 92 91 91 93 95 95 93 90 89 89 90 90 90 89 88 86 82 80 78 75 70 67 65 63 61 58 55 53 52 53 54 54 53 52 51 50 49 48 48 47 46 45 45
61 66 66 63 60 59 61 66 68 67 64 65 70 74 75 75 78 81 82 82 84 85 85 86 90 91 92 94 95 96 97 99 100 98 97 95 93 92 93 95 95 95 95 94 93 93 93 93 93 93 93 92 92 92 92 91 91 92 92 90 85 80 75 71 67 64 60 57 56 56 53 50 48 49 50 50 50 50 49 48 47 47 46 46 45 45 46
Wind_Speed
5 3 10 13 10 7 8 11 12 9 9 11 10 9 7 7 7 6 7 7 7 8 4 6 6 5 6 8 13 19 24 26 27 29 29 29 31 33 36 38 37 37 37 37 37 35 32 31 30 30 30 27 29 33 29 23 26 26 21 20 22 23 23 22 21 21 20 19 18 17 17 16 15 15 15 15 15 13 12 12 12 11 11 10 10 10 11
3 2 8 14 12 8 7 9 11 11 11 12 11 8 6 5 4 5 4 7 8 7 3 3 4 5 9 12 17 21 24 26 28 30 30 29 30 33 37 38 38 38 38 37 37 36 34 32 32 32 33 31 31 35 31 27 29 27 23 23 24 24 24 22 21 21 20 19 18 17 16 15 15 16 16 16 15 14 13 13 13 13 13 12 11 11 12
5 5 2 11 13 9 6 5 5 9 9 7 5 4 4 3 2 2 3 2 6 6 3 3 5 11 15 15 17 21 24 26 28 29 30 30 30 32 36 38 39 39 39 38 38 37 36 34 32 33 34 31 31 36 35 31 30 26 23 24 25 25 23 22 21 20 19 19 18 17 16 15 15 16 16 15 14 14 14 14 14 14 14 14 13 13 13
2 4 2 9 11 10 8 4 4 8 8 6 4 3 5 6 4 4 5 1 5 5 2 4 7 12 12 11 16 20 23 26 29 29 29 31 32 32 36 39 40 40 40 39 38 38 37 35 33 32 33 31 33 36 34 30 28 25 23 25 25 24 22 20 20 19 19 19 18 16 15 15 16 16 15 14 14 14 15 15 15 16 16 15 15 15 15
1 4 2 9 10 9 4 2 5 7 4 4 4 1 2 5 6 7 4 5 6 4 5 5 7 9 9 10 17 22 24 25 28 29 30 33 35 36 37 39 40 40 39 39 39 38 37 36 34 32 30 30 34 35 32 29 27 24 24 26 25 23 21 20 19 20 20 19 17 16 16 16 16 16 14 13 14 15 15 16 16 17 17 16 16 17 17
1 4 1 7 8 6 4 6 6 5 3 6 8 3 4 4 2 3 4 5 3 4 6 7 7 8 10 14 18 23 26 27 27 28 31 34 36 37 37 38 38 38 39 39 38 37 35 36 35 31 27 28 33 35 33 30 25 23 24 26 24 22 21 20 20 20 20 18 18 17 17 17 17 15 14 13 14 15 15 16 17 17 18 18 17 18 18
3 2 3 7 5 5 6 4 2 3 4 8 10 5 1 2 3 4 4 2 1 2 2 6 10 10 13 19 21 23 27 30 30 31 33 35 37 38 38 39 39 39 40 40 38 35 34 35 35 31 27 27 31 34 32 27 23 24 25 24 23 22 22 22 22 21 20 19 19 19 19 18 17 15 14 14 15 16 16 16 17 17 18 18 18 19 19
3 2 5 5 4 5 4 4 1 2 2 6 8 6 3 3 3 4 3 1 2 3 5 10 15 16 16 17 19 23 28 31 33 35 37 38 39 40 42 42 42 41 41 40 37 34 33 33 34 33 28 26 30 34 33 29 28 27 25 24 24 24 24 23 22 21 20 20 21 20 20 19 16 15 14 15 15 16 17 17 17 17 18 18 19 19 19
3 4 3 1 1 4 3 2 1 2 1 2 5 4 1 4 4 4 4 4 4 5 7 13 18 20 16 9 9 19 28 31 33 35 36 38 38 38 38 39 39 39 38 38 35 32 31 33 34 33 29 27 30 35 36 34 32 28 26 25 26 26 25 24 23 21 20 21 21 22 21 19 16 15 14 14 15 17 17 18 18 18 19 19 19 19 19
2 5 4 3 4 2 4 5 3 2 2 3 6 6 1 5 5 4 5 6 6 5 7 12 17 16 9 2 6 17 26 30 32 33 32 34 36 35 35 36 37 38 37 36 35 32 31 32 32 32 32 31 33 37 37 35 32 29 27 27 27 28 26 22 19 19 21 21 21 22 21 18 17 16 15 13 14 17 17 17 18 19 19 19 19 19 20
2 5 4 2 2 1 4 7 7 6 3 3 6 7 1 6 6 4 4 6 6 6 7 10 11 9 4 4 7 17 26 28 30 32 32 32 34 34 35 35 35 37 36 35 35 34 32 32 31 31 32 34 37 40 39 36 33 31 29 28 28 27 23 18 17 20 22 23 22 22 21 19 18 17 15 13 14 17 17 17 18 19 19 20 21 21 20
2 4 3 1 2 1 3 6 7 8 4 4 7 4 4 7 6 5 5 8 8 9 11 9 5 5 4 3 2 12 23 25 27 30 31 32 34 34 35 35 34 35 35 35 35 36 35 33 32 31 33 37 39 38 36 35 33 31 29 28 27 24 21 19 21 23 24 24 25 23 21 20 18 15 12 12 14 16 18 18 19 20 20 20 21 22 20
3 4 3 1 1 2 3 5 8 8 4 6 6 3 7 6 7 5 5 11 12 13 15 11 4 3 3 6 6 8 20 22 25 28 28 29 31 32 33 34 34 34 34 34 34 35 35 35 33 32 35 38 38 36 35 34 32 30 28 27 25 24 22 22 23 24 25 25 25 23 20 20 19 16 13 12 13 16 18 19 20 21 21 22 22 21 19
3 3 3 1 1 2 4 7 8 5 4 3 3 5 5 4 6 3 4 11 14 16 17 11 3 2 2 8 9 5 16 20 22 25 26 27 29 30 31 32 33 33 34 34 34 35 35 35 34 33 35 37 37 37 35 34 31 29 28 27 25 24 24 24 24 25 26 26 24 23 21 22 21 19 18 17 15 17 19 20 21 22 23 23 22 21 19
2 3 4 3 1 2 6 8 5 3 3 5 5 3 1 4 7 7 4 7 11 14 16 13 6 2 1 3 6 2 10 19 21 22 25 26 27 30 31 31 32 32 33 34 35 35 35 35 34 34 34 36 37 37 35 33 32 30 28 27 25 24 25 25 24 25 26 26 25 24 23 22 20 19 19 19 18 19 20 20 21 23 24 24 23 21 19
3 3 2 1 4 4 7 6 2 3 4 7 6 5 6 8 11 10 7 2 4 10 14 16 15 10 5 3 4 3 5 15 21 22 23 24 26 28 30 30 31 31 32 33 34 35 34 34 34 35 35 35 37 36 35 34 34 32 29 27 25 24 25 26 24 25 26 26 25 25 23 21 20 19 19 18 18 20 21 21 22 23 24 24 23 21 20
2 3 4 4 4 3 7 7 7 7 9 10 9 8 9 10 11 11 10 8 3 4 9 13 17 17 13 8 6 6 5 11 19 23 23 23 25 26 28 29 30 30 31 32 33 34 34 34 34 35 34 34 34 34 35 35 34 32 29 27 24 24 26 26 24 25 26 26 25 25 24 22 21 21 20 19 19 21 22 21 22 23 23 23 22 21 20
1 1 2 3 3 5 8 9 9 11 13 11 9 9 9 9 8 8 8 9 8 3 5 10 14 16 17 14 11 8 8 9 16 22 23 24 25 26 27 28 29 29 30 31 32 32 33 33 34 34 32 31 31 34 35 35 33 31 29 27 25 26 27 26 25 25 26 27 26 25 24 22 21 20 19 19 20 22 23 23 22 22 22 21 21 20 19
2 1 2 3 4 5 7 9 10 12 13 11 9 8 6 6 6 5 6 7 9 8 5 7 10 13 16 17 16 14 11 10 15 21 24 25 25 26 27 27 28 29 30 31 32 32 32 32 32 31 30 30 31 33 34 34 32 31 29 27 26 27 27 26 26 26 27 28 27 26 25 23 22 21 19 19 21 24 25 25 24 23 22 21 20 20 19
2 2 5 5 4 4 5 8 9 10 10 10 8 7 6 6 6 5 5 6 8 10 10 9 9 10 13 16 18 18 16 13 14 18 23 25 25 25 25 26 27 29 29 30 31 31 31 31 30 30 29 30 31 32 33 33 32 31 29 27 26 26 26 26 26 26 27 27 27 27 26 24 23 22 21 21 22 25 25 24 23 23 22 21 20 19 18
2 1 3 3 4 3 5 7 7 8 8 7 6 6 5 5 6 6 6 7 8 10 11 13 13 11 9 11 15 18 18 15 13 16 21 24 24 24 25 25 26 28 29 29 30 30 30 30 29 30 30 30 30 31 33 33 32 30 28 27 26 26 26 26 26 26 27 27 27 26 25 23 22 22 21 20 22 23 23 22 20 19 18 18 17 17 17
1 2 2 1 2 1 2 5 6 7 7 6 5 5 5 6 7 7 7 6 8 10 11 13 14 14 11 6 9 14 16 15 14 15 19 22 23 24 24 24 26 27 28 28 28 29 29 28 29 29 30 29 30 31 32 32 31 29 27 26 27 27 27 26 26 27 28 28 27 26 25 24 23 23 22 20 21 21 21 20 19 17 14 13 13 14 15
2 3 4 1 2 2 2 5 6 6 7 5 4 3 5 6 6 6 6 5 6 8 10 12 14 14 11 7 4 8 12 14 14 16 18 21 23 24 24 24 25 26 27 28 28 27 27 27 28 29 29 29 29 30 31 31 30 28 27 27 28 29 28 27 26 27 28 28 28 26 25 24 24 25 24 23 22 22 21 20 19 18 15 13 13 13 13
2 5 6 3 1 2 4 5 6 6 6 5 4 3 4 5 5 5 5 5 6 7 9 11 12 13 12 9 5 4 7 11 14 15 17 20 22 23 24 24 24 25 26 27 27 26 25 25 26 28 29 30 29 29 30 31 30 28 27 26 27 28 27 26 26 27 29 28 28 27 26 25 25 25 24 25 25 25 24 22 20 19 17 16 15 14 13
4 6 5 3 2 3 3 4 5 5 5 5 4 4 5 5 5 5 5 6 6 6 8 10 11 12 12 11 8 4 4 7 11 14 16 18 21 22 22 22 21 23 24 25 24 24 23 25 26 27 28 29 28 28 29 30 30 29 27 26 26 26 25 25 26 28 29 28 28 28 27 27 27 26 26 26 27 27 26 25 23 21 19 18 17 16 14
5 5 3 3 3 3 2 2 4 4 4 4 4 4 5 6 6 6 6 6 6 6 7 8 10 12 12 10 9 7 4 3 6 10 12 15 17 19 19 19 18 20 22 23 22 22 23 24 26 26 26 26 26 27 29 30 30 28 26 25 25 23 21 22 25 27 28 28 28 28 27 27 27 26 26 26 26 26 26 26 25 23 22 21 19 17 15
4 3 2 1 1 2 2 3 3 4 4 4 4 4 5 6 6 5 6 6 6 6 6 6 8 11 11 10 9 8 6 3 2 5 8 12 14 17 19 19 19 20 21 21 21 21 21 22 23 25 27 27 26 26 28 29 29 27 25 24 22 21 20 21 24 26 27 27 28 28 27 26 26 26 26 26 26 25 25 25 25 24 22 21 19 17 16
2 2 1 1 1 2 2 3 4 4 5 4 4 4 5 6 5 5 5 5 5 5 5 6 7 8 9 9 9 9 8 6 3 2 6 9 13 16 18 19 19 19 19 19 20 21 21 21 23 25 26 27 26 26 27 28 28 26 25 24 21 20 21 24 26 26 26 26 27 26 26 25 25 25 25 26 26 25 24 24 24 22 20 19 18 18 17
2 1 1 2 2 2 2 3 4 5 5 5 4 4 5 5 5 5 5 5 5 5 6 6 6 6 7 7 7 8 8 7 4 1 3 6 10 12 14 15 16 17 18 20 21 22 22 22 23 25 25 24 24 25 27 27 26 26 26 25 23 21 21 22 25 26 24 24 26 26 25 24 24 24 25 26 25 24 24 25 23 21 20 19 18 18 18
2 2 1 1 1 1 1 2 4 5 5 5 4 4 4 4 5 6 6 6 5 6 6 6 5 5 5 5 6 6 7 6 5 3 1 2 4 6 7 10 14 17 19 21 23 24 24 23 24 26 27 24 21 23 25 26 26 26 25 25 23 22 19 19 23 26 25 23 25 26 25 24 24 24 25 26 25 24 24 25 23 21 20 19 19 18 17
1 2 2 1 0 0 1 2 4 5 5 5 4 2 3 4 5 6 6 6 7 8 8 7 5 4 4 4 5 6 6 5 4 4 4 4 4 5 3 4 7 9 12 16 20 23 25 24 24 25 27 26 23 22 23 24 25 25 25 24 22 21 19 19 21 23 23 22 24 26 26 25 24 24 25 26 25 25 25 25 23 21 20 19 18 16 15
2 2 2 2 1 1 2 3 5 6 5 4 4 3 2 3 4 5 5 6 8 9 9 8 5 4 4 3 3 4 5 4 3 3 3 3 4 5 4 5 6 6 7 11 15 19 21 23 24 24 24 25 24 22 21 22 23 24 25 24 22 21 21 21 21 20 20 20 22 24 25 25 24 24 25 26 25 26 26 25 23 21 19 18 17 15 14
2 3 4 4 3 3 3 4 3 4 5 4 4 3 2 2 3 4 4 4 6 8 8 8 6 4 6 5 3 2 2 4 3 3 4 3 4 5 6 9 11 12 11 12 15 17 19 21 22 22 22 23 22 20 19 20 22 23 24 23 22 20 21 21 21 21 20 20 20 21 22 23 24 24 25 25 25 26 25 23 21 19 17 17 16 14 14
2 4 6 6 6 6 6 6 5 4 4 3 3 3 2 2 2 3 3 3 5 5 5 6 5 3 5 6 5 3 1 2 3 4 4 4 4 5 6 8 11 13 14 15 16 17 18 19 20 20 21 21 20 18 18 20 22 23 23 22 21 20 20 20 20 20 20 18 17 17 19 21 23 23 24 24 24 24 23 20 18 16 16 16 16 15 15
6 7 8 7 7 6 6 5 5 5 4 3 2 2 2 2 2 3 3 4 4 4 3 4 4 2 2 5 5 4 3 2 3 3 3 2 2 3 5 6 8 10 12 13 15 16 17 17 18 18 18 18 17 16 17 20 22 23 23 21 19 19 19 19 19 18 17 17 16 17 19 21 22 22 22 23 23 22 20 18 16 16 17 17 16 15 15
7 7 7 6 6 6 5 4 4 4 4 3 2 2 3 3 3 3 4 4 5 5 6 5 4 3 2 4 5 5 4 3 2 2 2 2 3 4 4 5 6 8 10 12 13 14 14 14 15 15 15 15 14 15 17 20 21 22 22 20 18 17 18 19 19 17 15 15 15 16 19 20 21 21 22 21 20 19 18 17 16 17 18 17 15 15 16
7 7 7 6 6 5 4 4 4 4 4 3 3 4 4 4 4 4 5 5 6 7 7 6 4 2 2 4 6 7 6 3 2 2 3 3 3 4 4 5 6 8 9 11 12 12 12 13 13 12 13 13 13 15 17 18 19 20 19 18 17 18 19 19 17 15 14 14 14 15 17 19 19 20 20 20 19 17 17 17 17 17 16 15 15 15 15
6 6 6 6 6 6 5 5 5 4 3 4 4 4 4 4 4 5 5 5 4 3 2 2 1 1 4 6 8 8 7 4 2 2 2 2 3 4 5 5 6 7 8 9 9 10 10 11 11 11 12 12 13 14 15 15 15 16 17 17 18 20 20 19 17 16 15 15 15 16 17 18 18 19 19 18 17 16 16 17 17 16 15 15 14 14 14
6 6 6 7 7 6 6 5 5 4 3 3 2 2 3 3 3 3 2 2 2 4 5 4 4 5 7 7 6 5 5 3 1 1 1 1 2 3 4 4 4 5 5 6 7 8 9 10 10 11 11 11 11 12 12 13 13 15 17 18 19 20 20 19 17 16 15 16 16 17 18 18 17 17 17 16 16 16 17 17 17 17 17 16 15 15 14
6 6 6 6 6 5 4 4 5 5 4 3 2 1 2 3 3 3 3 4 5 6 6 5 5 5 5 3 2 3 3 3 2 2 1 1 1 1 2 2 2 2 2 3 4 6 8 9 9 10 9 9 10 11 11 12 13 16 19 20 20 20 19 17 14 13 14 15 16 17 16 15 14 14 15 15 15 16 17 17 17 17 17 16 16 15 15
7 5 5 6 7 6 5 6 6 5 4 4 4 4 3 2 1 1 2 2 2 2 1 1 2 3 3 4 5 5 5 5 5 4 3 3 2 1 0 0 1 1 2 2 3 4 6 8 8 9 9 9 10 11 12 13 14 16 18 19 19 19 17 15 14 13 13 13 15 15 14 13 13 13 13 14 15 15 15 16 16 16 15 14 14 14 13
7 4 4 6 8 6 5 6 6 5 5 5 6 7 7 6 5 4 3 3 2 2 2 2 2 4 5 6 6 7 7 6 5 5 5 5 4 3 2 2 1 2 4 5 5 5 7 8 9 9 10 11 12 13 14 15 16 17 19 20 21 20 18 17 15 14 13 14 15 16 14 13 14 14 14 14 15 15 15 15 15 15 14 13 13 13 12
5 3 5 6 6 5 5 6 7 7 6 7 7 8 8 7 6 6 4 4 3 3 3 3 3 4 5 6 7 7 8 7 6 7 7 8 7 5 4 3 3 4 5 6 6 6 7 8 9 9 10 12 13 15 17 18 19 21 23 22 20 19 17 15 13 13 13 14 16 17 14 12 13 13 13 13 13 14 15 16 15 14 13 13 13 12 12
2 2 4 5 4 3 4 6 7 8 7 7 7 8 9 8 7 7 5 4 4 4 4 4 4 5 7 8 8 8 8 8 8 8 8 9 9 8 6 5 4 4 6 6 6 6 7 8 9 10 10 10 13 16 19 20 21 21 20 17 14 13 12 10 9 9 10 11 13 14 13 12 12 12 13 12 12 13 14 16 17 16 15 14 13 11 10
2 2 2 1 1 2 4 6 7 8 8 7 7 7 7 7 8 8 7 6 6 5 5 5 5 6 8 10 11 9 9 8 8 7 7 7 8 8 8 7 5 4 6 7 7 7 7 9 10 9 8 8 11 16 19 20 20 18 16 13 12 12 11 9 8 9 10 11 13 14 14 13 12 12 13 12 11 10 11 12 14 14 15 15 14 12 11
4 3 2 0 1 2 4 5 6 7 8 8 6 5 5 6 7 8 8 8 7 6 6 6 6 7 9 11 12 11 11 10 9 8 7 7 7 7 8 8 6 5 6 8 8 8 8 9 9 7 5 6 10 14 17 18 18 17 16 16 15 14 11 9 7 7 8 10 12 14 14 12 11 11 12 12 11 10 10 10 10 10 12 13 14 13 12
3 3 3 3 2 2 4 6 6 7 7 6 5 5 5 5 6 6 7 8 7 6 6 7 7 9 11 12 11 11 11 11 10 9 9 8 8 8 8 8 7 7 7 8 9 8 7 7 7 6 4 6 10 14 17 17 16 16 16 16 14 11 9 7 6 5 5 6 8 10 11 11 10 10 12 13 13 13 12 12 11 11 11 12 13 13 13
2 3 3 4 4 2 3 4 5 5 6 5 5 6 6 6 5 5 6 6 6 6 6 7 8 11 13 14 12 11 11 10 10 10 10 9 9 9 9 8 8 8 7 7 8 7 6 6 6 7 7 9 12 16 17 17 15 14 14 13 11 9 9 8 8 7 7 6 5 5 6 7 7 8 10 12 13 13 13 13 13 13 13 13 13 14 13
1 2 2 3 5 4 3 3 4 5 6 5 5 6 6 5 5 5 5 5 6 6 7 7 8 11 14 15 14 13 12 11 10 11 11 11 11 10 10 9 9 8 8 7 7 7 6 6 7 9 10 12 14 15 15 14 13 12 12 11 11 10 9 8 8 8 8 8 7 6 5 4 3 3 4 6 7 8 9 10 11 11 12 12 12 13 13
1 2 1 1 4 6 5 4 4 6 6 6 5 5 6 6 6 6 5 5 5 6 6 7 9 11 13 15 14 13 12 12 11 11 11 11 11 10 11 10 9 9 9 8 7 7 8 8 9 11 13 14 13 13 12 12 11 11 11 11 10 9 9 9 9 8 8 7 5 4 3 3 2 2 3 4 5 7 8 8 9 10 10 11 11 11 11
3 4 2 1 4 6 5 2 3 4 5 6 5 5 6 7 6 6 5 5 5 5 5 6 9 11 13 14 13 13 13 12 11 10 10 11 11 11 12 11 10 10 11 9 8 8 9 10 11 12 13 12 12 11 11 12 11 11 10 10 9 10 10 10 9 7 6 5 4 3 3 3 4 4 5 6 7 8 9 9 10 10 10 10 11 11 11
2 2 3 5 6 6 3 1 3 3 3 4 4 4 5 6 7 6 6 5 4 4 5 5 7 10 12 13 12 13 13 12 10 9 10 10 10 11 13 13 12 11 12 10 8 8 9 10 11 11 11 10 10 10 10 10 11 11 11 11 11 10 10 9 7 5 4 4 4 4 5 4 5 5 6 7 8 8 9 9 10 10 10 9 9 8 8
Wind_Direction
245 201 157 153 144 143 146 152 168 178 164 162 173 195 205 161 150 223 233 172 198 246 231 193 191 160 152 160 159 156 156 157 161 164 165 164 167 171 172 175 181 183 184 186 189 193 198 200 200 200 199 201 199 194 195 205 204 198 206 218 213 210 214 217 222 226 228 229 230 230 228 223 218 214 210 204 198 193 186 178 179 181 182 184 183 177 168
347 331 164 153 142 135 137 154 167 165 162 171 180 191 195 175 195 238 189 174 221 248 225 190 179 137 125 133 145 151 155 160 162 162 164 166 166 168 170 175 182 186 189 191 193 197 200 201 200 200 199 198 198 197 199 203 202 203 213 216 212 213 217 219 225 227 227 226 223 219 217 215 213 209 204 199 192 187 181 176 179 181 180 181 184 178 169
29 357 147 150 147 137 117 113 138 144 145 146 149 157 156 160 251 326 91 153 258 263 204 154 139 135 130 133 146 154 159 162 163 163 166 168 168 170 172 177 183 187 191 194 195 197 198 198 199 199 196 196 201 200 196 195 199 206 214 214 213 215 217 222 225 223 221 218 213 212 212 209 208 205 199 193 187 181 178 176 179 182 181 181 180 177 172
36 346 74 135 133 117 102 83 112 137 139 136 149 174 169 172 173 96 81 131 262 260 190 124 126 136 138 143 153 157 162 165 165 166 168 170 172 174 176 179 184 188 192 195 195 193 194 196 199 199 197 200 203 197 192 195 203 209 215 216 215 217 218 219 219 217 215 211 208 210 208 205 204 201 194 188 184 180 180 179 180 182 182 182 180 176 174
0 327 105 127 114 103 112 212 175 158 152 142 142 165 209 188 156 127 143 227 231 195 149 136 142 150 154 159 162 163 166 167 167 168 170 173 178 182 183 185 188 190 193 195 194 194 195 198 201 201 200 202 202 197 195 201 207 212 217 216 215 216 214 214 215 213 210 209 208 207 204 201 200 195 189 188 185 183 182 181 182 183 182 183 181 178 177
82 315 90 114 110 133 213 235 181 162 176 151 140 151 217 216 182 168 218 251 220 169 162 160 162 162 161 164 166 168 169 168 169 171 174 178 183 186 189 190 191 192 193 194 197 200 201 201 201 202 201 202 203 202 200 199 206 218 220 215 214 213 210 210 211 209 208 208 206 204 201 199 196 191 188 187 187 187 185 184 185 185 183 183 182 181 179
122 331 68 104 135 208 247 276 210 171 175 142 120 98 135 276 297 274 274 294 128 122 123 138 139 142 156 165 168 171 174 174 173 175 180 184 187 189 192 192 193 195 196 197 199 202 203 203 201 198 198 201 205 205 202 202 214 222 218 215 214 209 206 206 207 207 207 206 202 200 198 195 193 191 187 187 188 188 188 189 189 187 186 185 183 182 182
126 73 74 122 201 252 303 345 30 134 133 108 91 68 11 318 277 240 234 201 125 84 85 120 130 132 141 156 170 177 180 180 180 182 186 190 193 195 197 197 196 197 199 200 201 203 205 205 200 196 199 206 208 207 206 211 218 216 213 214 211 205 204 205 205 206 206 203 199 197 195 193 192 190 187 186 189 191 190 190 189 188 188 186 185 184 183
130 113 85 89 345 345 351 4 105 144 180 142 121 111 314 291 268 224 195 158 131 113 104 116 126 128 123 125 170 184 185 187 188 190 193 195 197 200 200 199 198 199 200 200 202 206 208 205 200 201 207 213 211 207 207 209 210 208 210 213 209 204 204 203 202 204 204 201 198 195 194 193 190 190 190 189 191 194 194 192 190 190 189 186 186 184 181
88 102 86 45 40 15 260 261 273 300 278 197 144 109 27 285 282 249 190 152 135 132 122 128 132 125 111 101 204 190 189 192 192 193 195 197 199 201 202 201 201 201 203 202 203 209 212 209 206 208 212 215 212 209 208 207 206 205 208 210 207 203 200 198 203 207 205 202 199 197 197 196 190 187 189 192 195 197 197 196 193 191 189 186 183 181 180
54 98 102 104 116 180 249 264 286 316 319 179 124 82 358 274 291 289 197 161 149 149 146 148 140 120 121 247 220 188 188 192 193 193 196 198 201 204 206 207 206 205 206 205 204 207 211 212 211 212 216 217 213 208 206 205 205 204 207 210 209 203 200 204 213 211 204 201 199 196 197 197 193 188 185 189 197 198 198 199 195 192 190 187 181 179 181
74 94 93 163 182 225 264 263 289 319 345 106 99 86 247 264 307 307 206 174 166 159 155 157 147 131 165 259 270 182 185 190 194 197 199 201 203 205 206 209 210 209 209 208 206 208 212 213 214 216 217 214 208 205 203 204 205 207 210 211 208 202 202 209 211 206 202 200 198 195 195 193 191 187 184 189 199 202 199 198 197 193 190 188 184 181 183
80 89 90 122 232 255 264 277 303 325 10 76 95 177 232 270 329 321 202 182 176 169 168 170 156 107 88 25 30 169 184 188 192 199 203 204 206 208 208 209 210 211 211 212 213 213 214 215 217 217 215 211 208 207 208 208 209 210 210 207 201 198 202 206 205 202 202 201 200 197 194 189 185 183 182 188 205 211 203 197 197 195 190 188 188 185 183
60 92 104 71 290 271 292 303 314 344 62 103 173 209 234 297 343 6 176 186 186 183 183 183 155 69 43 26 38 146 189 194 193 196 200 203 205 208 210 212 212 212 211 212 213 213 213 215 218 218 217 215 211 209 211 214 215 214 210 205 200 199 202 204 203 201 202 202 200 197 194 191 189 186 180 179 197 212 207 197 196 195 190 188 189 187 184
90 69 59 59 152 279 328 329 330 24 98 170 193 184 53 7 22 49 105 186 197 198 199 200 209 246 272 350 14 59 194 202 201 199 201 203 204 206 208 210 212 212 212 211 212 213 213 215 218 220 221 217 212 209 211 214 214 213 209 204 201 201 202 203 202 201 200 201 199 197 196 195 193 190 182 179 191 206 205 198 196 194 190 189 189 190 189
103 82 52 161 200 267 340 5 66 83 105 134 125 78 55 42 39 45 53 73 210 217 216 216 224 238 248 265 298 313 218 208 208 206 206 207 208 209 210 211 213 213 213 213 213 214 215 216 218 222 222 216 210 209 210 212 212 210 207 202 200 201 203 203 200 198 199 200 199 198 200 198 193 192 188 185 192 202 202 198 197 194 191 191 191 192 192
143 168 208 235 248 310 11 47 86 98 103 109 99 83 74 59 45 36 32 33 30 238 235 233 235 239 241 240 253 279 268 226 214 212 212 213 213 213 213 213 214 214 214 215 215 214 215 217 220 221 219 215 212 211 211 212 212 210 206 202 200 202 203 201 199 198 199 201 201 201 202 201 196 193 193 190 194 199 199 198 198 196 193 192 193 194 193
300 225 239 290 345 25 52 70 91 106 110 108 98 91 83 69 55 37 21 18 18 2 248 243 247 249 246 241 241 257 270 245 222 216 216 216 216 216 215 214 215 215 215 217 218 217 216 217 218 218 215 215 217 216 213 213 213 211 208 204 201 203 202 200 198 199 200 201 202 202 204 204 200 198 197 195 196 199 199 198 199 198 196 194 193 194 195
61 56 284 317 6 28 56 80 99 111 115 113 105 94 76 64 61 42 13 2 3 6 337 272 268 265 257 248 243 247 256 251 231 221 219 219 218 218 218 216 215 216 216 216 217 217 217 217 216 215 214 216 218 218 215 214 213 211 209 206 204 203 201 199 199 200 202 202 200 200 203 202 198 199 203 202 201 201 200 199 199 199 200 199 196 195 196
82 224 265 302 351 16 58 87 97 103 111 116 111 99 80 61 52 31 11 358 349 356 1 344 314 287 268 256 249 246 246 246 238 228 224 222 220 218 219 219 218 218 218 218 219 219 219 218 215 213 214 216 217 217 217 216 213 210 208 209 209 206 202 201 201 202 203 203 200 200 201 198 195 198 203 204 205 206 205 203 201 200 200 201 200 198 197
23 288 291 343 20 35 62 80 86 93 103 107 104 100 87 56 39 26 14 358 342 346 357 356 347 334 307 272 255 248 245 244 243 236 229 225 221 219 219 219 220 221 221 221 222 221 220 219 216 214 215 217 218 217 217 216 213 210 209 209 209 207 204 203 204 204 204 203 201 200 199 196 194 200 205 207 209 210 210 208 206 206 205 203 201 200 200
93 244 278 48 100 142 96 81 82 89 93 90 89 91 78 56 42 30 19 5 348 346 353 358 357 354 349 316 266 250 245 241 240 237 233 227 221 219 218 217 218 220 221 222 222 221 221 220 218 217 218 219 220 219 219 217 214 212 211 209 207 207 206 205 206 205 203 202 200 199 198 195 195 200 205 209 212 214 212 208 205 205 206 205 205 204 202
213 288 313 3 112 138 110 92 92 96 93 86 86 81 67 56 45 35 28 17 359 350 354 1 3 2 4 2 305 254 241 237 235 234 234 229 221 218 216 214 214 217 219 220 220 220 221 221 220 221 222 223 223 222 221 220 217 214 213 211 208 206 207 207 208 207 203 200 198 199 198 197 198 200 202 203 207 209 208 204 201 199 196 196 200 202 202
259 334 342 347 32 63 81 91 96 99 94 85 75 64 60 54 49 50 46 29 16 4 356 2 9 12 16 20 4 288 250 241 236 233 233 230 224 220 216 214 215 217 218 219 219 220 223 225 225 226 226 225 225 225 224 222 219 216 216 216 212 208 207 208 209 207 204 200 198 199 200 200 202 204 202 200 200 198 197 199 200 199 197 195 194 192 192
323 340 350 6 47 68 81 93 96 91 82 77 68 58 61 63 60 63 59 43 33 20 4 4 13 19 24 30 26 2 287 254 242 236 234 232 230 226 220 217 219 222 222 222 223 223 225 226 227 229 229 227 226 227 227 225 221 217 216 216 215 212 209 209 208 206 204 203 200 200 202 204 205 206 204 202 198 194 193 196 199 200 200 199 195 189 189
342 352 21 53 67 74 83 101 98 85 76 78 70 58 63 68 68 66 60 50 43 33 18 12 16 22 29 36 37 30 4 287 254 242 237 235 231 226 221 222 227 229 227 225 225 226 228 229 229 230 230 230 230 230 230 228 222 216 214 215 215 214 214 214 212 209 207 206 204 204 207 209 209 209 207 205 203 199 196 197 199 200 200 199 195 193 196
352 5 36 65 61 64 79 91 88 89 92 88 74 63 65 68 68 65 60 55 50 45 39 33 28 27 29 35 40 41 33 9 294 246 235 230 225 219 218 222 228 228 226 224 225 226 229 232 233 233 230 229 230 232 232 229 222 216 214 214 214 215 215 215 215 214 212 209 208 209 211 213 213 212 209 207 205 203 202 201 201 201 200 199 199 202 205
356 358 26 111 99 70 75 81 90 112 117 104 89 77 67 62 63 64 63 63 62 57 56 60 56 43 34 33 37 37 33 31 18 265 235 225 221 217 217 221 225 226 226 226 226 226 227 230 233 234 233 231 230 231 230 226 220 215 213 211 213 219 218 213 213 215 214 212 213 215 216 217 217 215 212 209 206 205 205 205 204 204 204 205 207 211 214
5 24 97 121 110 93 90 100 121 137 132 122 111 90 68 53 54 61 68 70 68 64 63 63 63 59 49 44 41 36 34 37 38 348 244 233 228 224 223 223 223 223 224 225 225 226 227 229 232 233 233 234 236 234 230 224 218 215 213 211 215 221 219 213 213 214 212 213 217 220 221 221 220 217 213 211 209 208 206 205 204 207 211 213 215 218 221
12 47 68 108 109 98 119 163 163 157 149 142 132 101 71 55 53 62 73 78 77 78 72 60 55 57 55 50 46 45 46 48 54 71 131 199 215 219 225 226 221 220 222 224 225 226 226 228 233 233 230 230 235 236 232 224 217 215 216 216 216 218 217 214 213 211 208 211 217 221 223 223 222 220 216 213 212 212 209 206 206 211 216 219 223 226 229
36 35 19 15 75 100 226 198 183 178 169 156 145 118 80 65 60 64 76 86 93 95 87 71 57 45 40 40 42 48 61 71 73 85 108 133 155 164 183 226 232 235 238 235 233 231 228 229 235 237 232 229 229 231 229 222 216 214 214 213 212 212 212 211 211 209 208 211 216 220 223 224 223 221 218 215 215 214 210 207 211 217 220 224 229 232 236
95 63 62 77 98 192 192 181 184 187 177 160 157 152 109 78 69 69 77 95 108 109 99 83 62 21 8 19 30 46 74 94 95 91 105 136 169 178 196 228 238 248 260 257 250 244 238 237 240 240 235 230 230 230 227 222 218 215 212 210 208 206 204 204 207 210 212 215 219 223 227 227 226 223 219 217 216 213 210 211 216 221 224 230 236 240 242
102 73 84 92 92 107 125 131 145 163 163 160 166 162 127 96 89 82 81 103 122 122 108 91 73 23 0 3 0 14 93 126 152 159 157 177 203 213 228 241 242 240 245 253 255 252 247 246 246 242 235 231 230 229 226 223 220 217 213 211 209 204 200 201 204 207 211 214 217 223 229 233 231 225 220 217 215 213 214 217 221 225 231 238 244 247 246
112 97 97 99 94 88 91 93 94 103 118 135 154 152 125 100 95 92 97 115 129 137 128 107 93 45 0 4 2 339 287 201 202 206 204 212 227 235 243 253 255 250 246 247 251 250 247 246 247 243 237 233 230 226 222 220 219 218 216 212 208 206 204 203 202 201 202 203 205 212 223 230 230 226 221 218 215 214 217 223 227 232 240 246 247 244 239
93 94 91 91 85 77 77 77 76 76 78 82 99 119 118 114 113 113 124 131 135 150 156 130 111 94 26 25 27 12 339 299 274 260 241 228 239 251 253 258 262 257 251 247 249 248 246 245 246 243 237 232 227 222 218 218 218 217 215 212 210 211 211 206 198 192 190 190 194 204 212 218 221 221 220 218 216 217 223 228 233 241 249 249 242 232 222
74 71 70 69 66 62 60 62 65 69 71 79 103 123 127 134 138 134 134 142 143 140 138 130 117 100 57 29 17 4 354 336 293 267 255 244 245 253 264 272 272 264 253 247 244 244 244 244 244 240 233 228 223 218 215 216 217 216 214 213 214 213 206 197 189 185 186 191 199 208 213 214 213 211 211 213 217 222 227 233 241 248 249 241 226 213 208
58 54 54 53 53 53 55 66 78 83 85 98 124 138 135 137 138 129 129 140 141 132 126 121 115 95 2 329 312 305 307 308 274 238 242 251 255 263 278 286 281 269 259 251 245 243 242 240 236 231 226 224 221 220 218 217 215 214 214 214 210 200 190 184 182 184 190 197 204 209 212 212 209 207 208 213 219 226 232 238 243 244 236 222 210 205 208
52 51 50 55 61 65 66 71 77 88 103 115 127 134 134 133 131 127 128 130 127 122 111 93 83 302 297 293 283 276 275 278 267 238 239 260 282 293 297 294 288 282 275 265 257 250 242 233 227 223 221 220 221 222 219 214 212 212 211 205 196 187 182 180 181 184 189 194 198 201 201 202 204 209 214 219 225 230 232 231 229 223 215 208 205 209 215
70 71 68 70 70 66 63 61 58 67 95 115 132 151 157 158 157 160 177 222 272 283 284 286 281 278 283 284 273 258 253 252 250 240 257 267 274 281 285 287 289 288 284 274 264 254 242 229 220 217 217 216 213 210 206 206 207 205 197 188 183 181 181 180 181 186 192 193 193 194 195 198 206 215 223 230 234 231 222 213 208 208 209 211 214 218 221
85 83 78 71 59 52 53 54 50 54 62 65 72 128 188 218 226 231 254 268 272 276 281 280 271 265 264 253 204 181 173 161 151 151 160 177 207 240 267 280 278 266 259 258 252 243 235 225 214 208 205 201 196 196 198 199 195 190 187 185 183 183 183 183 184 189 194 194 195 198 203 208 216 224 230 233 230 220 209 205 207 212 218 223 227 228 228
77 79 89 77 60 53 57 58 58 61 53 43 49 62 68 73 80 5 347 329 303 295 303 270 234 222 192 157 143 140 139 140 145 148 145 137 125 113 102 179 191 177 165 157 172 202 213 212 204 197 192 187 186 189 192 188 184 184 186 186 181 175 171 170 171 173 179 185 192 200 209 213 212 212 214 215 214 212 213 216 219 221 225 229 230 231 234
65 72 105 87 65 57 55 53 57 66 66 60 61 61 58 61 66 62 56 55 49 50 77 115 169 182 161 140 131 133 136 142 148 141 125 113 101 82 69 81 118 133 139 144 153 172 190 196 194 192 189 184 181 181 181 179 177 175 172 169 168 166 166 169 176 184 193 198 199 202 207 209 207 206 210 215 219 223 226 225 224 226 230 232 232 237 244
69 83 111 92 69 59 57 50 48 53 60 63 64 61 59 61 64 65 72 81 77 77 91 110 144 156 140 123 122 131 135 132 128 122 114 108 101 87 73 72 95 119 133 145 156 168 180 187 186 184 184 182 181 178 175 173 171 169 167 168 173 177 179 183 192 205 215 218 215 214 218 220 217 217 221 225 229 232 231 230 233 237 238 236 238 246 253
100 107 108 88 58 46 54 49 43 48 57 63 64 61 60 63 68 70 73 79 85 94 103 106 116 132 133 125 123 128 129 122 116 113 111 106 101 95 88 81 90 119 134 143 152 163 172 178 178 176 177 183 187 185 179 174 172 172 171 172 173 175 176 183 194 203 211 215 216 220 227 232 229 226 226 228 233 238 239 240 243 245 241 238 242 249 256
128 140 121 67 357 28 51 43 38 46 56 64 71 69 61 60 65 67 67 71 81 92 99 102 109 127 137 136 131 125 121 118 112 106 100 95 93 97 102 101 101 122 136 139 146 158 165 168 171 171 173 181 189 188 183 179 178 176 170 164 165 171 179 188 196 199 203 206 210 217 227 233 232 229 228 228 234 245 251 250 249 245 241 239 242 248 256
168 178 162 75 4 33 42 38 40 48 51 53 63 71 65 60 62 63 62 64 72 83 95 107 118 125 130 132 130 124 119 118 113 104 97 92 91 99 110 111 109 120 134 140 148 158 163 163 164 166 170 181 186 184 179 175 174 172 167 168 174 182 187 190 195 203 211 214 216 222 229 233 231 229 228 227 233 248 261 261 251 241 237 239 244 252 262
176 181 162 141 127 58 34 35 46 52 49 47 55 63 61 59 60 63 64 65 68 80 97 112 121 122 120 119 118 117 115 115 112 108 104 101 101 107 117 123 127 130 134 141 151 160 163 162 162 166 177 185 182 176 169 164 163 165 169 174 177 177 174 169 165 170 191 210 219 225 231 234 234 234 235 235 240 250 257 257 254 251 250 251 256 263 269
177 199 180 160 151 117 44 47 61 59 52 51 54 52 51 53 54 58 65 72 77 88 102 114 122 125 122 119 115 114 114 112 109 107 106 104 104 108 116 127 135 137 137 142 154 164 168 170 175 179 181 177 175 173 168 163 162 167 174 177 174 169 165 159 149 141 143 150 162 182 203 214 219 225 232 237 243 249 253 255 258 262 264 265 266 268 268
133 216 199 153 140 136 118 94 80 63 53 57 61 55 50 52 53 52 58 70 82 94 109 123 132 131 128 125 124 124 123 119 114 110 109 108 107 109 115 124 133 139 142 146 155 160 161 166 175 176 169 163 162 164 166 166 169 176 183 185 184 182 176 165 153 145 140 136 131 129 134 144 161 191 215 227 233 239 244 249 253 257 259 260 260 260 260
169 193 200 155 162 164 149 104 66 40 27 31 51 58 51 47 51 55 56 61 75 93 112 131 141 142 138 134 132 130 128 126 121 117 115 116 116 118 124 130 138 145 148 149 148 146 145 150 159 165 165 163 160 158 160 167 174 177 180 185 193 197 189 173 161 154 151 148 147 146 147 146 150 166 188 208 219 223 226 231 236 240 243 247 250 254 258
254 232 223 180 178 179 171 113 38 17 3 359 11 38 45 42 48 60 61 58 69 89 108 133 149 151 146 142 140 138 134 131 126 122 121 123 125 127 131 136 141 146 148 144 139 139 141 143 146 151 160 166 168 169 173 179 182 182 183 186 190 193 189 181 171 165 168 179 197 209 206 202 200 197 197 205 213 216 219 224 229 235 241 247 252 257 261
318 235 181 160 159 162 165 341 349 357 353 344 353 26 46 47 51 57 58 53 64 89 106 133 156 157 151 148 149 147 143 137 132 128 128 129 132 135 138 141 144 147 146 141 137 141 150 154 154 155 160 164 166 171 181 190 197 200 200 195 189 189 190 186 177 174 188 216 235 238 236 236 236 230 225 224 224 226 232 238 241 243 246 250 253 258 264